Location: Sungai Bunut
(2.6333°N, 113.7333°E)
Time: 08:54:59
(UTC+00:00)

Vanguard 3 - Pass Details

Date: 09 December 2023
Orbit: 508 x 3239 km, 33.3° (Epoch: 21 February)

Event Time Altitude Azimuth Distance (km) Brightness Sun altitude
Rises 18:54:40 0° 331° (NNW) 3,398 - -46.9°
Reaches altitude 10° 19:00:06 10° 16° (NNE) 1,967 - -45.7°
Maximum altitude 19:00:33 10° 22° (NNE) 1,925 - -45.6°
Drops below altitude 10° 19:01:01 10° 28° (NNE) 1,904 - -45.5°
Sets 19:05:19 0° 77° (ENE) 2,606 - -44.6°
